Palos Park, Illinois, United States (60464)
Lat: 41.67N, Lon: 87.83W
Wx Zone: ILZ014
Local Info
Past Weather Observations for Tuesday, December 16, 2014

NOTE: This archive is for the closest National Weather Service station to Palos Park. Information may differ from the station used for current weather conditions.

Click here for Long-term Archive

Time Weather Temperature Dewpoint Humidity Pressure Winds Precip Visibility
23:53
Overcast
32°F / 0°C 23°F / -5°C 69% 30.12 in
(1020 mb)
NW 15 mph
(NW 24 kph)
- 10SM
22:53
Overcast
34°F / 1°C 25°F / -4°C 70% 30.12 in
(1020 mb)
WNW 16.1 mph
(WNW 26 kph)
- 10SM
21:53
Overcast
34°F / 1°C 27°F / -3°C 75% 30.12 in
(1020 mb)
WNW 12.7 mph
(WNW 20 kph)
- 10SM
20:53
Overcast
36°F / 2°C 27°F / -3°C 70% 30.09 in
(1019 mb)
WNW 16.1 mph
(WNW 26 kph)
- 10SM
19:53
Overcast
36°F / 2°C 28°F / -2°C 75% 30.06 in
(1018 mb)
WNW 12.7 mph
(WNW 20 kph)
0.00 in
(0.00 mm)
10SM
18:53
Overcast
Light Snow
36°F / 2°C 30°F / -1°C 81% 30.04 in
(1017 mb)
NW 12.7 mph
(NW 20 kph)
0.00 in
(0.00 mm)
9SM
17:53
Overcast
37°F / 3°C 32°F / 0°C 81% 30.04 in
(1017 mb)
NW 12.7 mph
(NW 20 kph)
0.00 in
(0.00 mm)
10SM
16:53
Overcast
37°F / 3°C 32°F / 0°C 81% 29.98 in
(1015 mb)
WNW 13.8 mph
(WNW 22 kph)
- 10SM
15:53
Overcast
39°F / 4°C 34°F / 1°C 81% 29.95 in
(1014 mb)
NW 15 mph
(NW 24 kph)
- 10SM
14:53
Overcast
41°F / 5°C 36°F / 2°C 81% 29.89 in
(1012 mb)
NW 19.6 mph
(NW 32 kph)
- 10SM
13:53
Overcast
43°F / 6°C 39°F / 4°C 87% 29.83 in
(1010 mb)
NW 18.4 mph
(NW 30 kph)
0.00 in
(0.00 mm)
9SM
13:10
Overcast
Light Rain
45°F / 7°C 41°F / 5°C 87% 29.8 in
(1009 mb)
WNW 21.9 mph
(WNW 35 kph)
0.00 in
(0.00 mm)
6SM
12:53
Overcast
Light Rain
46°F / 8°C 43°F / 6°C 87% 29.8 in
(1009 mb)
WNW 10.4 mph
(WNW 17 kph)
0.00 in
(0.00 mm)
8SM
11:53
Overcast
46°F / 8°C 43°F / 6°C 87% 29.77 in
(1008 mb)
WNW 16.1 mph
(WNW 26 kph)
- 10SM
10:53
Overcast
46°F / 8°C 43°F / 6°C 87% 29.77 in
(1008 mb)
WNW 11.5 mph
(WNW 19 kph)
0.00 in
(0.00 mm)
8SM
09:53
Overcast
46°F / 8°C 43°F / 6°C 87% 29.74 in
(1007 mb)
NW 10.4 mph
(NW 17 kph)
- 8SM
09:22
Overcast
46°F / 8°C 45°F / 7°C 93% 29.74 in
(1007 mb)
NW 8.1 mph
(NW 13 kph)
- 8SM
08:53
Overcast
Fog And Mist
46°F / 8°C 45°F / 7°C 93% 29.71 in
(1006 mb)
WNW 6.9 mph
(WNW 11 kph)
0.00 in
(0.00 mm)
6SM
07:53
Overcast
Fog And Mist
46°F / 8°C 45°F / 7°C 93% 29.68 in
(1005 mb)
W 6.9 mph
(W 11 kph)
0.00 in
(0.00 mm)
4SM
07:39
Overcast
Fog And Mist
46°F / 8°C 45°F / 7°C 93% 29.68 in
(1005 mb)
SSW 8.1 mph
(SSW 13 kph)
0.00 in
(0.00 mm)
4SM
07:15
Overcast
Fog And Mist
46°F / 8°C 45°F / 7°C 93% 29.68 in
(1005 mb)
SSW 6.9 mph
(SSW 11 kph)
0.00 in
(0.00 mm)
3SM
06:53
Overcast
Light Rain
46°F / 8°C 45°F / 7°C 93% 29.68 in
(1005 mb)
SSW 5.8 mph
(SSW 9 kph)
0.02 in
(0.51 mm)
1 3/4SM
05:53
Overcast
Fog And Mist
46°F / 8°C 45°F / 7°C 93% 29.65 in
(1004 mb)
SSW 6.9 mph
(SSW 11 kph)
- 1SM
05:45
Overcast
Fog And Mist
46°F / 8°C 45°F / 7°C 93% 29.65 in
(1004 mb)
SSW 4.6 mph
(SSW 7 kph)
- 1SM
05:37
Obscured
Fog And Mist
45°F / 7°C 45°F / 7°C 100% 29.65 in
(1004 mb)
Variable 3.5 mph
(Variable 6 kph)
- 3/4SM
04:53
Obscured
Fog
45°F / 7°C 45°F / 7°C 100% 29.65 in
(1004 mb)
Calm - 1/4SM
03:53
Overcast
Fog
45°F / 7°C 43°F / 6°C 93% 29.65 in
(1004 mb)
S 3.5 mph
(S 6 kph)
0.00 in
(0.00 mm)
1/2SM
03:39
Overcast
Fog And Mist
45°F / 7°C 43°F / 6°C 93% 29.65 in
(1004 mb)
SSE 4.6 mph
(SSE 7 kph)
0.00 in
(0.00 mm)
3/4SM
02:53
Overcast
Drizzle
45°F / 7°C 43°F / 6°C 93% 29.65 in
(1004 mb)
S 5.8 mph
(S 9 kph)
0.00 in
(0.00 mm)
1 1/4SM
01:53
Overcast
Drizzle
45°F / 7°C 43°F / 6°C 93% 29.65 in
(1004 mb)
SSE 5.8 mph
(SSE 9 kph)
0.00 in
(0.00 mm)
1 1/2SM
00:53
Overcast
Drizzle
45°F / 7°C 43°F / 6°C 93% 29.65 in
(1004 mb)
S 4.6 mph
(S 7 kph)
0.00 in
(0.00 mm)
1 1/2SM
00:26
Overcast
Light Rain
45°F / 7°C 43°F / 6°C 93% 29.65 in
(1004 mb)
S 6.9 mph
(S 11 kph)
0.00 in
(0.00 mm)
1 1/4SM
Time Weather Temperature Dewpoint Humidity Pressure Winds Precip Visibility


Weather for websites

WeatherForYou.com, LLC is not responsible for any damages or problems caused by this service. Current weather conditions are obtained from the closest station including government and personal stations which may have varying degrees of accuracy. Weather forecasts are derived from the NOAA NDFD. Like all things, this site belongs to Jesus Christ... He just trusts me to maintain it. If you have any questions or comments email webmaster@weatherforyou.com

Copyright © 2014, WeatherForYou.com LLC. All rights reserved.